[TLELIST] Archives

 

[list_settings.list_name] Current TLEs

January 11th 2010 PST

HST 1 20580U 90037B 10009.85735511 .00000291 00000-0 94489-5 0 5019 2 20580 028.4685 193.3983 0003260 317.8077 042.2266 15.00875675880934 ISS (ZARYA) 1 25544U 98067A 10010.41184340 .00011599 00000-0 72793-4 0 3437 2 25544 051.6471 321.2929 0007674 165.3260 288.7859 15.77287362638610 CXO 1 25867U 99040B 10010.41666667 -.00000462 00000-0 10000-3 0 4143 2 25867 066.3691 060.9934 7909616 275.1960 001.0876 00.37807078 5793 ____________________________________________________________________ These 2-Line ...Continue Reading

[list_settings.list_name] Current TLEs

January 10th 2010 PST

HST 1 20580U 90037B 10007.92894111 .00000307 00000-0 10695-4 0 5000 2 20580 028.4695 205.9860 0003263 296.5943 063.4311 15.00875423880642 ISS (ZARYA) 1 25544U 98067A 10009.40696956 .00011485 00000-0 72196-4 0 3379 2 25544 051.6475 326.4774 0007775 161.7934 342.5989 15.77262608638450 CXO 1 25867U 99040B 10007.75000000 -.00000294 00000-0 10000-3 0 4131 2 25867 066.3558 061.0857 7901266 275.2083 358.0652 00.37806206 5789 ____________________________________________________________________ These 2-Line ...Continue Reading

[list_settings.list_name] Current TLEs

January 9th 2010 PST

HST 1 20580U 90037B 10007.92894111 .00000307 00000-0 10695-4 0 5000 2 20580 028.4695 205.9860 0003263 296.5943 063.4311 15.00875423880642 ISS (ZARYA) 1 25544U 98067A 10008.39226405 .00010963 00000-0 69179-4 0 3304 2 25544 051.6468 331.7111 0007647 158.6977 340.1974 15.77236209638294 CXO 1 25867U 99040B 10007.75000000 -.00000294 00000-0 10000-3 0 4131 2 25867 066.3558 061.0857 7901266 275.2083 358.0652 00.37806206 5789 ____________________________________________________________________ These 2-Line ...Continue Reading

[list_settings.list_name] Current TLEs

January 8th 2010 PST

HST 1 20580U 90037B 10006.86498872 .00000329 00000-0 12405-4 0 4998 2 20580 028.4697 212.9301 0003271 285.0678 074.9550 15.00875268880480 ISS (ZARYA) 1 25544U 98067A 10007.37812834 .00010783 00000-0 68181-4 0 3254 2 25544 051.6472 336.9444 0007769 154.8913 341.8416 15.77212179638130 CXO 1 25867U 99040B 10007.75000000 -.00000294 00000-0 10000-3 0 4131 2 25867 066.3558 061.0857 7901266 275.2083 358.0652 00.37806206 5789 ____________________________________________________________________ These 2-Line ...Continue Reading

[list_settings.list_name] Current TLEs

January 7th 2010 PST

HST 1 20580U 90037B 10003.07465982 .00000330 00000-0 12489-4 0 4976 2 20580 028.4706 237.6697 0003460 245.1077 114.9201 15.00874082879910 ISS (ZARYA) 1 25544U 98067A 10006.36727047 .00010110 00000-0 64252-4 0 3184 2 25544 051.6467 342.1587 0007906 151.7998 001.4790 15.77186643637974 CXO 1 25867U 99040B 10002.45833333 -.00000087 00000-0 10000-3 0 4125 2 25867 066.3270 061.3427 7891244 275.2183 357.5720 00.37807115 5769 ____________________________________________________________________ These 2-Line ...Continue Reading

[list_settings.list_name] Current TLEs

January 6th 2010 PST

HST 1 20580U 90037B 10003.07465982 .00000330 00000-0 12489-4 0 4976 2 20580 028.4706 237.6697 0003460 245.1077 114.9201 15.00874082879910 ISS (ZARYA) 1 25544U 98067A 10005.41094839 .00009404 00000-0 60114-4 0 3115 2 25544 051.6465 347.0925 0007826 147.8940 331.8691 15.77163397637821 CXO 1 25867U 99040B 10002.45833333 -.00000087 00000-0 10000-3 0 4125 2 25867 066.3270 061.3427 7891244 275.2183 357.5720 00.37807115 5769 ____________________________________________________________________ These 2-Line ...Continue Reading

[list_settings.list_name] Current TLEs

January 5th 2010 PST

HST 1 20580U 90037B 10003.07465982 .00000330 00000-0 12489-4 0 4976 2 20580 028.4706 237.6697 0003460 245.1077 114.9201 15.00874082879910 ISS (ZARYA) 1 25544U 98067A 10004.40292252 .00008531 00000-0 54964-4 0 3040 2 25544 051.6461 352.2931 0007950 144.7962 007.7716 15.77139774637661 CXO 1 25867U 99040B 10002.45833333 -.00000087 00000-0 10000-3 0 4125 2 25867 066.3270 061.3427 7891244 275.2183 357.5720 00.37807115 5769 ____________________________________________________________________ These 2-Line ...Continue Reading

[list_settings.list_name] Current TLEs

January 4th 2010 PST

HST 1 20580U 90037B 10003.07465982 .00000330 00000-0 12489-4 0 4976 2 20580 028.4706 237.6697 0003460 245.1077 114.9201 15.00874082879910 ISS (ZARYA) 1 25544U 98067A 10003.44971964 .00008175 00000-0 52888-4 0 2986 2 25544 051.6467 357.2093 0007870 140.1375 356.7948 15.77120914637514 CXO 1 25867U 99040B 10002.45833333 -.00000087 00000-0 10000-3 0 4125 2 25867 066.3270 061.3427 7891244 275.2183 357.5720 00.37807115 5769 ____________________________________________________________________ These 2-Line ...Continue Reading

[list_settings.list_name] Current TLEs

January 3rd 2010 PST

HST 1 20580U 90037B 09365.14879106 .00000353 00000-0 14235-4 0 4965 2 20580 028.4713 256.7658 0003382 213.8468 146.1910 15.00873205879477 ISS (ZARYA) 1 25544U 98067A 10002.37499484 .00008337 00000-0 53897-4 0 2924 2 25544 051.6461 002.7532 0007899 136.3273 014.6239 15.77102299637343 CXO 1 25867U 99040B 10002.45833333 -.00000087 00000-0 10000-3 0 4125 2 25867 066.3270 061.3427 7891244 275.2183 357.5720 00.37807115 5769 ____________________________________________________________________ These 2-Line ...Continue Reading

[list_settings.list_name] Current TLEs

January 2nd 2010 PST

HST 1 20580U 90037B 09365.14879106 .00000353 00000-0 14235-4 0 4965 2 20580 028.4713 256.7658 0003382 213.8468 146.1910 15.00873205879477 ISS (ZARYA) 1 25544U 98067A 10001.42621145 .00008682 00000-0 55995-4 0 2856 2 25544 051.6471 007.6471 0007876 133.3099 027.2507 15.77086576637198 CXO 1 25867U 99040B 09364.79166667 -.00000076 00000-0 10000-3 0 4117 2 25867 066.3242 061.4936 7881830 275.2308 354.4783 00.37795045 5755 ____________________________________________________________________ These 2-Line ...Continue Reading
  • This mailing list is a public mailing list - anyone may join or leave, at any time.
  • This mailing list is announce-only.

International Space Station (ISS) / Hubble Space Telescope (HST) / Chandra X-Ray Observatory Orbital Data via EMAIL

Privacy Policy:

Private list